Weather History for LTFE - March, 2013

Change the Weather History Date:

Tuesday, March 12, 2013

  Actual Average (LGKO) Record (LGKO)
Temperature  
Mean Temperature 63 °F -  
Max Temperature 73 °F 59 °F 66 °F (2013)
Min Temperature 51 °F 49 °F 39 °F (2005)
Degree Days  
Heating Degree Days 2    
Growing Degree Days 13 (Base 50)    
Moisture  
Dew Point 54 °F    
Average Humidity 75    
Maximum Humidity 94    
Minimum Humidity 44    
Precipitation  
Precipitation 0.00 in - - ()
Sea Level Pressure  
Sea Level Pressure 29.66 in    
Wind  
Wind Speed 7 mph ()    
Max Wind Speed 18 mph    
Max Gust Speed -    
Visibility 5.5 miles    
Events      
Averages and records for this station are not official NWS values.
T = Trace of Precipitation, MM = Missing Value Source: Averaged Metar Reports

Daily Weather History Graph

Daily Weather History Graph

Search for Another Location

Airport or City:

Trip Planner

Search our weather history database for the weather conditions in past years. The results will help you decide how hot, cold, wet, or windy it might be!

Date:

Astronomy

Mar. 12, 2013 Rise Set
Actual Time 6:24 AM EET 6:13 PM EET
Civil Twilight 5:58 AM EET 6:39 PM EET
Nautical Twilight 5:28 AM EET 7:09 PM EET
Astronomical Twilight 4:58 AM EET 7:40 PM EET
Moon 6:22 AM EET (3/12) 7:06 PM EET (3/12)
Length of Visible Light 12h 40m
Length of Day
11h 48m
New Moon, 0% of the Moon is Illuminated
Mar 12
New Moon
Mar 19
First Quarter
Mar 27
Full
Apr 3
Last Quarter
Apr 10
New

Hourly Weather History & Observations

Time (EET) Temp. Dew Point Humidity Pressure Visibility Wind Dir Wind Speed Gust Speed Precip Events Conditions
12:20 AM 62.6 °F 53.6 °F 72% 29.71 in 6.2 mi SE 10.4 mph - N/A   Mostly Cloudy
12:50 AM 62.6 °F 53.6 °F 72% 29.71 in 6.2 mi ESE 8.1 mph - N/A   Mostly Cloudy
1:20 AM 64.4 °F 53.6 °F 68% 29.71 in 6.2 mi SE 6.9 mph - N/A   Mostly Cloudy
1:50 AM 62.6 °F 53.6 °F 72% 29.71 in 6.2 mi SE 10.4 mph - N/A   Mostly Cloudy
2:20 AM 62.6 °F 53.6 °F 72% 29.71 in 6.2 mi SE 8.1 mph - N/A   Mostly Cloudy
2:50 AM 60.8 °F 53.6 °F 77% 29.71 in 6.2 mi ESE 5.8 mph - N/A   Mostly Cloudy
3:20 AM 60.8 °F 53.6 °F 77% 29.71 in 6.2 mi SE 6.9 mph - N/A   Scattered Clouds
3:50 AM 59.0 °F 51.8 °F 77% 29.71 in 6.2 mi Variable 2.3 mph - N/A   Scattered Clouds
4:20 AM 59.0 °F 51.8 °F 77% 29.68 in 6.2 mi ESE 6.9 mph - N/A   Scattered Clouds
4:50 AM 57.2 °F 51.8 °F 82% 29.68 in 6.2 mi ESE 3.5 mph - N/A   Scattered Clouds
5:20 AM 55.4 °F 50.0 °F 82% 29.68 in 6.2 mi East 4.6 mph - N/A   Scattered Clouds
5:50 AM 53.6 °F 50.0 °F 88% 29.68 in 6.2 mi Variable 2.3 mph - N/A   Scattered Clouds
6:20 AM 55.4 °F 51.8 °F 88% 29.68 in 6.2 mi East 3.5 mph - N/A   Mostly Cloudy
6:50 AM 59.0 °F 51.8 °F 77% 29.68 in 6.2 mi SE 4.6 mph - N/A   Mostly Cloudy
7:20 AM 55.4 °F 51.8 °F 88% 29.68 in 6.2 mi NE 5.8 mph - N/A   Mostly Cloudy
7:50 AM 57.2 °F 53.6 °F 88% 29.68 in 6.2 mi East 5.8 mph - N/A   Mostly Cloudy
8:20 AM 59.0 °F 53.6 °F 82% 29.68 in 6.2 mi NE 8.1 mph - N/A   Mostly Cloudy
8:50 AM 60.8 °F 55.4 °F 82% 29.68 in 6.2 mi Calm Calm - N/A   Mostly Cloudy
9:20 AM 60.8 °F 53.6 °F 77% 29.68 in 6.2 mi East 5.8 mph - N/A   Mostly Cloudy
9:50 AM 60.8 °F 53.6 °F 77% 29.68 in 6.2 mi East 6.9 mph - N/A   Mostly Cloudy
10:20 AM 62.6 °F 53.6 °F 72% 29.65 in 6.2 mi ENE 9.2 mph - N/A   Mostly Cloudy
10:50 AM 64.4 °F 53.6 °F 68% 29.62 in 6.2 mi East 10.4 mph - N/A   Mostly Cloudy
11:20 AM 66.2 °F 51.8 °F 60% 29.62 in 6.2 mi East 10.4 mph - N/A   Mostly Cloudy
11:50 AM 68.0 °F 50.0 °F 52% 29.59 in 6.2 mi East 8.1 mph - N/A   Mostly Cloudy
12:20 PM 71.6 °F 50.0 °F 46% 29.56 in 6.2 mi East 8.1 mph - N/A   Mostly Cloudy
12:50 PM 69.8 °F 50.0 °F 49% 29.53 in 6.2 mi ESE 16.1 mph - N/A   Mostly Cloudy
1:20 PM 73.4 °F 50.0 °F 44% 29.56 in 6.2 mi SE 10.4 mph - N/A   Mostly Cloudy
1:50 PM 69.8 °F 55.4 °F 60% 29.59 in 4.3 mi West 18.4 mph - N/A   Mostly Cloudy
2:20 PM 69.8 °F 55.4 °F 60% 29.59 in 4.3 mi West 15.0 mph - N/A   Mostly Cloudy
2:50 PM 71.6 °F 55.4 °F 57% 29.59 in 6.2 mi West 11.5 mph - N/A   Mostly Cloudy
3:20 PM 71.6 °F 53.6 °F 53% 29.56 in 6.2 mi SSE 10.4 mph - N/A   Mostly Cloudy
3:50 PM 71.6 °F 55.4 °F 57% 29.56 in 6.2 mi SSW 8.1 mph - N/A   Mostly Cloudy
4:20 PM 69.8 °F 55.4 °F 60% 29.56 in 6.2 mi SW 12.7 mph - N/A   Mostly Cloudy
4:50 PM 68.0 °F 57.2 °F 68% 29.59 in 6.2 mi West 11.5 mph - N/A   Scattered Clouds
5:20 PM 66.2 °F 57.2 °F 73% 29.62 in 4.3 mi West 9.2 mph - N/A   Scattered Clouds
5:50 PM 64.4 °F 59.0 °F 83% 29.62 in 3.7 mi West 12.7 mph - N/A   Mostly Cloudy
6:20 PM 62.6 °F 57.2 °F 82% 29.62 in 3.7 mi West 6.9 mph - N/A   Scattered Clouds
6:50 PM 62.6 °F 57.2 °F 82% 29.65 in 3.7 mi WSW 6.9 mph - N/A   Scattered Clouds
7:20 PM 62.6 °F 57.2 °F 82% 29.65 in 3.7 mi WSW 3.5 mph - N/A   Scattered Clouds
7:50 PM 62.6 °F 59.0 °F 88% 29.68 in 6.2 mi SSW 3.5 mph - N/A   Scattered Clouds
8:20 PM 60.8 °F 59.0 °F 94% 29.68 in 5.6 mi West 6.9 mph - N/A   Scattered Clouds
8:50 PM 60.8 °F 57.2 °F 88% 29.71 in 5.0 mi WSW 4.6 mph - N/A   Scattered Clouds
9:20 PM 59.0 °F 55.4 °F 88% 29.71 in 3.7 mi SSE 2.3 mph - N/A   Scattered Clouds
9:50 PM 57.2 °F 55.4 °F 94% 29.74 in 3.7 mi ESE 4.6 mph - N/A   Scattered Clouds
10:20 PM 55.4 °F 53.6 °F 94% 29.74 in 3.7 mi ESE 4.6 mph - N/A   Scattered Clouds
10:50 PM 55.4 °F 53.6 °F 94% 29.74 in 4.3 mi SSE 4.6 mph - N/A   Scattered Clouds
11:20 PM 55.4 °F 53.6 °F 94% 29.74 in 4.3 mi Calm Calm - N/A   Scattered Clouds
11:50 PM 51.8 °F 50.0 °F 94% 29.74 in 3.7 mi East 5.8 mph - N/A   Scattered Clouds